Theta_e
298 298 298 298 299 299 300 301 302 303 304 306 307 307 309 310 312 314 315 314 314 314 313 313 313 312 312 312 313 311 312 310 302 298 300 300 300 301 300 299 299 299 299
298 298 298 298 298 300 301 304 303 304 304 304 305 307 308 310 312 315 315 315 314 314 314 314 314 313 315 314 314 311 311 309 306 297 297 297 298 299 299 299 298 298 298
297 297 297 298 298 302 303 304 304 305 306 307 307 308 308 311 315 316 315 315 315 315 314 315 315 315 314 314 312 311 311 308 307 303 298 298 298 298 298 299 299 300 299
298 297 297 298 302 304 304 305 306 307 308 309 309 310 311 313 315 316 316 316 316 315 315 316 316 316 314 312 311 312 310 308 306 303 300 298 299 298 299 299 299 299 299
297 297 298 300 302 303 303 304 307 308 310 309 311 312 314 315 316 316 316 315 316 315 315 316 316 316 312 313 313 310 310 308 305 302 301 299 299 298 299 299 299 299 297
297 297 298 301 302 304 305 306 308 309 310 311 314 315 316 317 317 316 316 316 315 315 315 315 316 316 315 313 313 311 309 307 304 303 301 300 299 299 300 301 300 299 296
297 298 301 301 303 304 306 306 307 309 309 312 314 316 315 316 316 317 317 316 316 315 314 315 315 313 314 312 310 307 305 305 305 305 304 301 300 300 301 300 299 298 296
296 299 302 302 303 304 305 306 308 309 310 311 310 310 313 311 314 316 316 314 314 312 311 312 313 310 310 310 307 305 304 303 303 304 304 303 302 300 299 299 298 296 294
296 299 303 303 303 303 304 306 307 307 307 307 306 307 309 306 308 312 314 311 308 306 307 308 309 308 307 307 308 304 303 302 301 301 301 299 298 296 295 296 296 295 290
297 301 303 303 304 303 303 302 303 304 304 304 304 304 303 303 305 309 311 309 305 304 304 304 306 306 306 305 307 305 298 293 293 292 294 295 294 293 292 292 292 292 291
298 302 302 303 304 304 303 302 302 303 304 303 302 301 302 303 303 306 309 308 304 303 302 302 302 303 302 299 296 294 292 289 289 290 289 288 287 287 287 287 288 289 289
298 301 302 302 303 303 303 302 300 301 301 300 300 299 299 300 303 305 307 307 305 305 298 296 295 294 292 292 292 291 289 289 288 288 287 285 285 285 285 285 285 285 284
298 300 300 301 302 302 302 301 299 299 299 296 298 298 297 299 301 303 302 300 298 296 293 291 290 291 292 292 290 289 289 289 288 287 285 285 285 284 285 285 285 285 284
297 299 299 299 299 299 301 301 300 299 299 297 296 295 295 296 297 295 294 293 294 294 291 290 291 291 290 289 288 287 287 287 287 287 286 285 285 284 285 285 284 283 282
296 297 297 298 298 297 298 300 301 297 300 299 301 301 297 294 293 294 295 294 294 293 291 288 287 287 287 287 287 287 287 288 288 286 286 284 284 284 283 283 283 282 280
295 295 295 296 296 296 295 295 296 297 296 295 298 298 296 297 295 294 294 294 294 292 288 288 289 290 289 288 288 286 286 286 286 285 284 284 284 283 282 281 281 279 278
295 295 295 295 295 294 294 294 292 294 296 296 298 297 296 297 294 294 294 293 290 289 291 291 290 290 288 286 285 286 284 284 284 284 283 283 282 281 281 279 278 277 276
296 296 295 294 295 295 295 295 296 294 292 292 294 296 295 294 293 293 292 289 287 289 293 291 289 288 287 287 286 285 283 283 283 282 282 281 281 280 278 277 276 275 275
295 294 295 295 295 296 295 295 296 293 290 291 290 291 292 292 292 290 288 289 289 290 290 290 288 288 288 286 285 284 283 282 282 282 281 280 279 278 276 275 275 275 275
294 295 295 294 294 294 294 293 292 291 289 288 288 289 289 288 287 287 287 288 289 290 289 289 287 287 286 285 284 283 282 282 281 281 279 278 276 276 275 275 275 274 273
293 293 294 293 293 292 292 291 290 290 290 289 288 288 288 288 287 286 287 287 289 290 289 288 286 286 285 284 283 282 281 280 280 279 277 276 275 275 274 274 274 273 272
293 292 293 292 292 291 291 291 290 289 289 289 288 287 287 286 285 285 287 287 288 289 289 288 286 285 284 284 283 281 280 279 277 276 275 274 274 274 274 273 273 272 272
292 292 292 292 291 291 290 290 289 288 288 288 287 287 286 285 285 286 286 286 287 287 287 286 285 283 282 281 280 280 279 277 276 275 275 274 274 273 273 273 272 272 271
291 292 292 292 290 290 289 288 288 287 287 287 287 286 285 285 285 285 285 286 285 285 285 284 283 281 280 279 277 276 276 275 274 274 274 274 273 272 272 272 271 271 271
291 291 291 290 290 289 288 287 287 286 287 287 285 284 284 285 285 284 284 285 284 283 282 281 280 278 277 276 275 275 274 274 273 273 273 273 273 272 272 271 271 270 270
291 291 291 290 290 289 287 287 286 286 286 285 284 283 284 284 284 283 283 283 282 281 280 278 277 275 274 274 274 273 273 273 273 272 272 272 272 271 271 271 270 270 269
Wind_Speed
7 6 6 6 5 6 7 6 8 8 6 5 3 2 2 4 6 5 12 17 21 23 22 20 20 25 22 19 17 18 11 5 7 4 9 9 11 10 9 8 8 6 6
8 8 6 6 6 5 6 8 8 9 7 4 3 3 4 8 7 9 14 17 20 23 21 20 22 21 16 13 11 16 13 7 6 11 11 10 9 10 8 7 6 4 4
9 8 6 6 5 4 8 7 5 5 3 2 4 5 7 8 8 8 17 18 18 17 20 19 20 18 13 12 14 15 11 9 9 14 11 10 7 11 8 7 5 4 4
11 9 7 6 4 4 6 6 2 0 2 7 7 9 10 9 9 13 15 19 18 19 20 15 17 16 16 17 17 15 12 10 11 16 13 9 6 6 5 4 5 5 5
12 10 9 6 5 2 1 2 5 5 7 11 13 11 10 8 10 14 16 17 21 16 11 11 15 13 14 20 19 15 12 14 16 14 13 8 6 6 5 3 3 1 2
14 11 10 7 4 2 4 5 7 10 10 12 16 15 12 11 13 16 16 18 18 18 16 13 11 9 12 15 10 12 13 20 18 13 10 9 8 8 6 3 2 3 3
16 14 12 9 6 5 8 8 8 11 11 11 12 12 13 13 11 15 15 18 17 16 15 16 14 13 14 17 16 17 18 14 11 10 13 9 8 6 6 4 4 4 3
18 17 15 10 9 9 11 11 9 10 11 11 10 12 13 12 11 15 15 18 17 17 17 20 20 21 20 23 24 21 18 16 13 12 11 11 10 9 6 6 5 6 4
22 21 17 13 13 15 15 14 14 13 13 13 13 15 15 14 14 15 19 23 23 22 22 22 23 24 22 22 22 22 20 18 14 11 12 11 9 7 5 7 5 5 4
27 25 19 16 15 17 16 15 16 18 18 19 19 17 18 19 20 22 25 29 30 29 27 25 23 23 18 15 16 16 20 17 14 13 13 12 10 8 8 7 6 7 7
29 26 21 18 18 18 20 17 19 22 23 22 23 20 18 18 21 25 26 30 33 31 28 24 21 18 17 15 14 14 16 17 15 15 16 15 13 12 12 11 10 8 8
30 27 23 21 21 22 22 24 24 25 27 26 25 23 19 18 20 22 24 26 26 29 27 24 21 17 16 16 16 17 17 16 15 16 17 18 17 17 18 18 18 17 16
33 30 26 24 23 24 27 28 27 26 27 26 26 25 22 20 20 20 23 25 25 28 26 23 21 19 18 19 19 17 15 14 16 18 21 19 18 19 18 18 18 17 17
33 31 28 28 26 26 28 29 30 29 28 26 27 26 25 24 24 25 26 26 25 25 25 23 21 21 20 21 20 17 15 14 15 18 20 19 17 16 15 15 17 17 20
30 31 30 30 30 28 28 29 29 24 26 28 28 30 31 28 27 26 26 25 25 25 26 26 25 25 23 20 18 16 15 15 18 19 20 20 20 19 19 15 16 19 22
28 28 28 29 29 30 28 24 19 18 18 18 23 25 22 23 26 24 22 22 22 25 26 26 24 20 20 19 18 19 17 16 17 19 19 19 20 19 19 16 16 20 23
29 29 29 29 29 28 27 28 24 14 11 12 20 19 15 25 24 23 21 22 25 25 27 24 22 19 19 18 20 20 21 18 18 18 18 18 18 17 16 16 17 20 22
31 32 32 29 31 30 29 29 29 26 25 20 17 17 19 24 24 22 24 28 25 22 22 23 23 21 20 21 21 22 21 19 18 18 17 16 15 15 17 18 18 22 22
34 31 30 31 32 32 31 29 29 26 24 28 23 18 19 22 22 24 28 28 29 26 22 21 21 20 21 22 22 21 20 19 17 16 15 14 15 17 19 18 20 19 20
32 33 34 32 31 31 30 29 28 26 25 23 24 27 27 26 27 23 24 25 26 26 24 22 22 22 22 22 22 21 20 17 16 15 15 15 16 18 22 19 18 20 21
30 32 34 32 30 31 31 28 27 28 29 27 26 30 33 30 27 27 29 24 25 23 23 22 23 22 21 20 19 18 18 18 16 17 18 19 20 22 20 18 19 18 20
30 32 33 31 30 29 29 30 29 26 29 31 27 28 26 23 24 28 28 24 23 23 22 21 22 21 20 19 18 19 19 20 20 21 21 21 20 21 19 19 19 18 17
32 31 31 29 30 30 31 31 30 29 29 30 27 28 30 28 28 28 25 23 24 24 22 21 22 23 21 18 17 15 17 20 22 22 24 22 20 20 19 19 18 19 18
32 33 31 29 29 30 30 30 30 30 30 30 30 31 31 30 28 28 26 25 24 24 23 23 22 22 23 21 20 19 20 22 21 20 19 20 20 19 19 19 17 17 18
31 31 31 31 31 31 30 30 30 30 30 30 31 33 33 32 30 29 29 28 27 26 25 24 23 22 21 22 24 25 25 24 22 20 19 19 20 19 18 17 17 16 16
31 31 31 30 30 30 31 31 31 32 31 32 34 35 36 35 33 32 33 32 30 29 28 25 24 23 24 25 25 26 26 25 24 22 21 21 21 20 18 17 15 14 13
Wind_Direction
195 207 218 242 247 267 288 296 297 290 284 272 268 285 221 158 152 125 160 155 148 152 160 167 171 175 178 181 185 188 179 164 124 143 164 174 183 184 183 187 188 201 211
189 203 220 237 251 270 287 296 300 287 275 251 223 201 200 152 138 134 153 156 156 156 164 161 167 173 167 165 185 181 190 190 153 145 160 164 183 182 189 194 201 213 233
185 205 201 229 253 290 301 301 305 281 248 205 180 156 155 134 113 141 159 161 153 165 165 161 171 182 183 183 172 171 177 167 158 158 143 163 162 183 189 198 205 231 252
190 198 206 198 239 283 297 291 313 321 161 136 129 125 130 134 133 138 148 152 156 141 157 147 164 172 176 169 163 174 168 148 136 140 128 133 138 173 194 218 240 267 282
197 191 192 193 237 254 271 243 128 146 152 139 133 132 132 146 165 146 151 154 169 166 153 139 150 149 159 164 170 166 158 141 135 129 124 128 133 137 170 163 205 266 310
202 185 185 195 232 150 135 147 133 139 146 146 140 136 129 120 131 151 151 148 152 165 163 164 163 168 168 175 168 157 155 144 136 129 128 136 139 135 127 100 60 51 68
201 183 186 189 176 159 150 156 148 142 139 129 127 137 136 135 144 156 158 151 155 157 164 170 163 155 155 146 143 137 134 136 136 135 127 120 117 119 127 116 97 102 91
198 185 189 193 164 168 161 164 163 155 149 141 138 132 129 127 153 164 157 151 148 145 148 151 149 144 144 141 136 130 122 111 105 109 112 114 126 128 131 124 116 110 93
198 186 191 192 169 164 167 175 174 163 151 143 137 133 132 131 150 156 152 139 132 129 132 136 137 135 138 141 138 126 113 106 114 127 129 128 122 125 122 142 133 141 92
194 187 190 187 174 167 167 168 166 162 147 137 127 129 135 136 145 146 142 134 126 123 122 124 126 126 128 132 130 131 127 127 127 121 119 122 115 105 88 97 107 103 91
188 186 188 183 177 169 162 162 154 145 137 129 124 124 126 136 145 147 145 140 132 126 120 117 117 122 127 133 131 132 125 126 122 115 107 100 96 91 86 83 82 89 101
183 185 184 182 177 169 165 159 156 150 141 135 128 121 120 128 139 141 141 136 133 127 121 122 126 137 131 125 119 115 117 122 119 113 106 95 90 88 86 87 86 86 85
182 182 182 181 177 173 166 160 156 154 147 141 136 131 126 128 131 138 139 137 137 130 129 129 129 128 126 123 116 115 117 122 121 110 103 102 101 103 101 97 91 87 85
179 183 180 178 176 175 171 167 165 161 156 152 146 142 140 142 143 147 145 143 142 133 129 129 131 129 123 118 118 119 121 124 123 120 118 114 115 124 120 119 113 102 89
176 180 180 179 176 173 172 170 171 167 167 164 163 160 156 158 159 157 154 151 145 141 136 131 127 123 119 118 117 119 124 129 126 126 127 127 124 122 115 117 109 101 90
171 175 176 175 174 171 168 160 171 177 176 178 172 171 168 163 160 160 158 153 148 145 141 138 135 136 136 138 137 133 134 134 131 131 131 132 129 124 118 112 104 95 94
174 174 176 177 173 170 167 158 140 147 173 178 178 173 172 165 164 159 157 156 155 156 150 151 153 154 148 146 143 140 136 134 132 133 133 129 127 124 120 112 108 103 97
182 182 179 178 176 175 175 170 168 162 155 149 166 173 175 171 167 167 163 161 157 166 165 163 161 159 154 150 149 146 141 140 141 135 132 130 129 126 123 116 109 105 102
184 181 181 181 182 181 182 179 176 170 162 156 155 158 169 171 173 172 173 175 170 172 174 170 165 161 156 152 150 147 145 145 141 138 136 136 134 132 121 120 114 110 110
188 186 184 182 181 181 182 181 176 170 161 158 161 164 166 164 162 175 183 184 179 177 175 171 167 162 157 155 153 151 151 148 146 147 141 140 136 130 123 124 122 119 108
185 185 184 181 181 183 183 182 180 175 169 170 171 176 178 173 176 183 189 192 189 181 175 172 165 162 159 157 156 157 154 150 153 152 146 143 139 130 128 130 127 120 113
186 182 183 182 181 182 184 186 184 179 175 174 174 176 173 184 184 190 192 192 188 181 177 175 169 168 164 163 163 164 161 157 156 153 147 144 142 135 137 133 127 124 123
189 185 183 183 183 183 184 188 186 183 178 176 171 170 185 190 193 191 190 188 182 179 175 174 173 166 162 162 162 167 166 162 158 156 149 146 144 141 139 131 129 125 116
190 188 187 186 181 182 183 184 186 185 180 175 171 178 185 194 191 188 187 183 180 179 176 175 174 171 165 163 159 156 156 154 152 151 152 149 146 142 138 131 130 123 117
191 187 185 183 183 183 182 181 179 179 179 176 176 181 189 194 189 186 184 181 180 179 173 172 171 169 167 162 158 156 155 152 150 150 154 150 144 142 139 133 130 125 119
193 191 189 185 183 182 180 178 178 178 177 178 181 186 192 192 189 187 183 180 178 176 171 167 167 167 163 160 159 157 156 154 152 153 154 152 148 144 142 134 131 128 122